Location: Harburg
(48.7667°N, 10.6667°E)
Time: 05:11:29
(UTC+00:00)

Cosmos 2034 Rocket - Pass Details

Date: 18 September 2020
Orbit: 957 x 1002 km, 82.9° (Epoch: 29 October)

Event Time Altitude Azimuth Distance (km) Brightness Sun altitude
Rises 18:54:05 0° 177° (S) 3,712 6.8 -15.5°
Reaches altitude 10° 18:56:37 10° 175° (S) 2,767 6.1 -15.9°
Maximum altitude 19:02:54 67° 94° (E) 1,083 4.0 -16.8°
Drops below altitude 10° 19:09:12 10° 14° (NNE) 2,770 6.5 -17.8°
Sets 19:11:44 0° 12° (NNE) 3,718 7.2 -18.2°
